FREGAT DEB

Satellite information

Favourite Embed

Satellite Type and Status

DEBRISIN ORBIT

Key statistics

Satellite FREGAT DEB at a glance.

Uptime

5043

Days in orbit

Revolutions

≈ 10.2

Per day

Orbit

MEO

Medium Earth Orbit

Inclination

51.6

Latest

Satellite identification and parameters

Extended collection of information and parameters for FREGAT DEB.

Object identification

Identified? True

Debris? True

Object name: FREGAT DEB

International designator: 2011-037LM

Object number (NORAD): 46406

Object ID (CCSDS): 46406

Country: COMMONWEALTH OF INDEPENDENT STATES (CIS)

Current information (Y/N): Y

RCS size: SMALL

Orbital parameters

Period: 141.086 minutes

Inclination: 51.5829 deg

SMA: 8977.371 km

Apoapsis: 4417.032 km

Periapsis: 781.441 km

RAAN: 359.737 deg

Eccentricy: 0.2024864

Argument of periapsis: 213.833 deg

Mean anomaly: 131.5389 deg

Mean motion: 10.20655 rev/day

Mean motion (dot): 0.00000613 rev/day2

B* drag term: 0.0019605 1/REarth

Two-line elements (TLE)

Creation date: May 4, 2025, 5:21 p.m.

Reference frame: TEME

Reference center: EARTH

Epoch: May 3, 2025, 11:50 p.m. UTC

TLE line 0: 0 FREGAT DEB

TLE line 1: 1 46406U 11037LM 25123.99364692 .00000613 00000-0 19605-2 0 9996

TLE line 2: 2 46406 51.5829 359.7370 2024864 213.8330 131.5389 10.20655000177208

Live tracking on map

Real-time ground track for satellite FREGAT DEB.

In-orbit conjunctions

A list of the most updated potential collisions computed for object FREGAT DEB.

Target Orbit TCA Probability of collision Miss distance Type
NOAA 6 SSO 2025-02-17 14:42:50 0.0002363713 748.0 (m) PAYLOAD

Associated space launch

The RadioAstron is an international space Very Long Baseline Interferometry project led by the Astro Space Center of Lebedev Physical Institute in Moscow, Russia. The aim of the mission is to use the Spektr-R space telescope to conduct interferometer observations in conjunction with the global ground radio telescope network in order to obtain images, coordinates, motions and evolution of angular structure of different radio emitting objects in the Universe with the extraordinary high angular resolution.

FREGAT DEB was lifted into orbit during the mission ‘Zenit-3F | Spektr-R (RadioAstron)’, on board a Zenit 3F space rocket.

The launch took place on July 18, 2011, 2:31 a.m. from 45/1.

For more information about the launch, click the button.

Launch to space Zenit-3F | Spektr-R (RadioAstron)
Zenit-3F | Spektr-R (RadioAstron)

Agency: N/A

Status: Launch Successful

Launch date: July 18, 2011, 2:31 a.m. UTC

Rocket: Zenit 3F

Launch pad: 45/1

Location: Baikonur Cosmodrome, Republic of Kazakhstan

...

Latest news about this satellite

There are no fresh news available about this satellite. Check back as we update our databases every day.


Newsletter sign-up

Weekly statistics, charts and insights to help you stay on top of the space industry.